Time,TemperatureF,DewpointF,PressureIn,WindDirection,WindDirectionDegrees,WindSpeedMPH,WindSpeedGustMPH,Humidity,HourlyPrecipIn,Conditions,Clouds,dailyrainin,SoftwareType,DateUTC
2013-06-06 00:03:00,53.0,41.0,30.10,SSE,157,0.0,0.0,64,0.00,,,0.00,,2013-06-06 04:03:00,
2013-06-06 00:13:00,53.0,41.0,30.10,SSE,157,0.0,0.0,64,0.00,,,0.00,,2013-06-06 04:13:00,
2013-06-06 00:23:00,53.0,41.0,30.09,SSE,157,0.0,0.0,64,0.00,,,0.00,,2013-06-06 04:23:00,
2013-06-06 00:33:00,52.0,41.0,30.09,SSE,157,0.0,0.0,65,0.00,,,0.00,,2013-06-06 04:33:00,
2013-06-06 00:42:00,52.0,41.0,30.09,ESE,112,0.0,0.0,67,0.00,,,0.00,,2013-06-06 04:42:00,
2013-06-06 00:53:00,52.0,41.0,30.09,ESE,112,0.0,0.0,67,0.00,,,0.00,,2013-06-06 04:53:00,
2013-06-06 01:02:00,52.0,42.0,30.10,SE,135,0.0,0.0,68,0.00,,,0.00,,2013-06-06 05:02:00,
2013-06-06 01:12:00,52.0,42.0,30.10,SE,135,0.0,0.0,68,0.00,,,0.00,,2013-06-06 05:12:00,
2013-06-06 01:23:00,52.0,41.0,30.09,East,90,0.0,0.0,67,0.00,,,0.00,,2013-06-06 05:23:00,
2013-06-06 01:32:00,52.0,41.0,30.09,SE,127,1.0,1.0,66,0.00,,,0.00,,2013-06-06 05:32:00,
2013-06-06 01:42:00,52.0,41.0,30.09,SE,127,1.0,1.0,66,0.00,,,0.00,,2013-06-06 05:42:00,
2013-06-06 01:52:00,53.0,42.0,30.08,SSE,157,2.0,2.0,65,0.00,,,0.00,,2013-06-06 05:52:00,
2013-06-06 02:02:00,53.0,40.0,30.08,SSE,157,0.0,3.0,62,0.00,,,0.00,,2013-06-06 06:02:00,
2013-06-06 02:12:00,53.0,40.0,30.08,SSE,157,0.0,3.0,62,0.00,,,0.00,,2013-06-06 06:12:00,
2013-06-06 02:22:00,53.0,40.0,30.08,SE,135,0.0,4.0,61,0.00,,,0.00,,2013-06-06 06:22:00,
2013-06-06 02:32:00,54.0,41.0,30.08,SSE,157,3.0,3.0,61,0.00,,,0.00,,2013-06-06 06:32:00,
2013-06-06 02:42:00,54.0,41.0,30.08,SSE,157,3.0,3.0,61,0.00,,,0.00,,2013-06-06 06:42:00,
2013-06-06 02:52:00,54.0,40.0,30.08,SSE,148,2.0,6.0,60,0.00,,,0.00,,2013-06-06 06:52:00,
2013-06-06 03:02:00,55.0,41.0,30.08,SSE,152,3.0,8.0,60,0.00,,,0.00,,2013-06-06 07:02:00,
2013-06-06 03:12:00,55.0,41.0,30.08,SSE,152,3.0,8.0,60,0.00,,,0.00,,2013-06-06 07:12:00,
2013-06-06 03:22:00,56.0,42.0,30.08,SE,140,2.0,9.0,60,0.00,,,0.00,,2013-06-06 07:22:00,
2013-06-06 03:32:00,56.0,42.0,30.07,SE,136,4.0,9.0,59,0.00,,,0.00,,2013-06-06 07:32:00,
2013-06-06 03:42:00,56.0,42.0,30.07,SE,136,4.0,9.0,59,0.00,,,0.00,,2013-06-06 07:42:00,
2013-06-06 03:52:00,56.0,42.0,30.07,SE,139,2.0,8.0,60,0.00,,,0.00,,2013-06-06 07:52:00,
2013-06-06 04:02:00,56.0,42.0,30.06,SE,136,3.0,9.0,60,0.00,,,0.00,,2013-06-06 08:02:00,
2013-06-06 04:12:00,56.0,42.0,30.06,SE,136,3.0,9.0,60,0.00,,,0.00,,2013-06-06 08:12:00,
2013-06-06 04:22:00,55.0,42.0,30.06,SSE,150,3.0,8.0,61,0.00,,,0.00,,2013-06-06 08:22:00,
2013-06-06 04:32:00,55.0,42.0,30.06,SE,144,3.0,9.0,62,0.00,,,0.00,,2013-06-06 08:32:00,
2013-06-06 04:42:00,55.0,43.0,30.06,SSE,151,3.0,9.0,63,0.00,,,0.00,,2013-06-06 08:42:00,
2013-06-06 04:52:00,55.0,43.0,30.06,SSE,151,3.0,9.0,63,0.00,,,0.00,,2013-06-06 08:52:00,
2013-06-06 05:02:00,56.0,44.0,30.05,SE,146,3.0,9.0,63,0.00,,,0.00,,2013-06-06 09:02:00,
2013-06-06 05:12:00,56.0,44.0,30.05,SE,146,3.0,9.0,63,0.00,,,0.00,,2013-06-06 09:12:00,
2013-06-06 05:22:00,56.0,44.0,30.05,SE,136,2.0,10.0,63,0.00,,,0.00,,2013-06-06 09:22:00,
2013-06-06 05:33:00,57.0,45.0,30.05,ESE,118,4.0,9.0,63,0.00,,,0.00,,2013-06-06 09:33:00,
2013-06-06 05:43:00,57.0,45.0,30.05,ESE,118,4.0,9.0,63,0.00,,,0.00,,2013-06-06 09:43:00,
2013-06-06 05:53:00,57.0,45.0,30.04,SE,146,6.0,13.0,63,0.00,,,0.00,,2013-06-06 09:53:00,
2013-06-06 06:03:00,57.0,45.0,30.04,SE,144,4.0,10.0,63,0.00,,,0.00,,2013-06-06 10:03:00,
2013-06-06 06:12:00,57.0,45.0,30.05,SSE,161,5.0,11.0,64,0.00,,,0.00,,2013-06-06 10:12:00,
2013-06-06 06:23:00,57.0,45.0,30.05,SSE,161,5.0,11.0,64,0.00,,,0.00,,2013-06-06 10:23:00,
2013-06-06 06:33:00,57.0,45.0,30.05,SSE,166,4.0,14.0,64,0.00,,,0.00,,2013-06-06 10:33:00,
2013-06-06 06:42:00,57.0,45.0,30.05,SSE,147,3.0,14.0,64,0.00,,,0.00,,2013-06-06 10:42:00,
2013-06-06 06:53:00,57.0,45.0,30.05,SSE,147,3.0,14.0,64,0.00,,,0.00,,2013-06-06 10:53:00,
2013-06-06 07:02:00,57.0,45.0,30.04,South,172,3.0,9.0,64,0.00,,,0.00,,2013-06-06 11:02:00,
2013-06-06 07:12:00,57.0,45.0,30.04,South,172,3.0,9.0,64,0.00,,,0.00,,2013-06-06 11:12:00,
2013-06-06 07:22:00,58.0,46.0,30.03,South,188,4.0,12.0,64,0.00,,,0.00,,2013-06-06 11:22:00,
2013-06-06 07:32:00,58.0,46.0,30.03,South,173,5.0,14.0,64,0.00,,,0.00,,2013-06-06 11:32:00,
2013-06-06 07:42:00,58.0,46.0,30.03,South,173,5.0,14.0,64,0.00,,,0.00,,2013-06-06 11:42:00,
2013-06-06 07:52:00,57.0,46.0,30.03,SSE,166,4.0,14.0,66,0.00,,,0.00,,2013-06-06 11:52:00,
2013-06-06 08:03:00,56.0,45.0,30.03,SSE,149,7.0,15.0,66,0.00,,,0.00,,2013-06-06 12:03:00,
2013-06-06 08:12:00,56.0,45.0,30.03,SSE,149,7.0,15.0,66,0.00,,,0.00,,2013-06-06 12:12:00,
2013-06-06 08:23:00,56.0,45.0,30.02,SE,146,5.0,12.0,66,0.00,,,0.00,,2013-06-06 12:23:00,
2013-06-06 08:33:00,56.0,46.0,30.04,SSE,161,4.0,9.0,69,0.00,,,0.00,,2013-06-06 12:33:00,
2013-06-06 08:43:00,55.0,46.0,30.03,SSE,157,4.0,10.0,71,0.00,,,0.00,,2013-06-06 12:43:00,
2013-06-06 08:53:00,55.0,46.0,30.03,SSE,157,4.0,10.0,71,0.00,,,0.00,,2013-06-06 12:53:00,
2013-06-06 09:03:00,54.0,46.0,30.03,SSE,159,4.0,11.0,74,0.02,,,0.02,,2013-06-06 13:03:00,
2013-06-06 09:13:00,53.0,46.0,30.03,SSE,168,6.0,12.0,77,0.04,,,0.04,,2013-06-06 13:13:00,
2013-06-06 09:23:00,53.0,46.0,30.03,SSE,168,6.0,12.0,77,0.04,,,0.04,,2013-06-06 13:23:00,
2013-06-06 09:33:00,53.0,46.0,30.03,SSE,150,6.0,12.0,78,0.08,,,0.08,,2013-06-06 13:33:00,
2013-06-06 09:43:00,53.0,46.0,30.03,SSE,150,6.0,12.0,78,0.08,,,0.08,,2013-06-06 13:43:00,
2013-06-06 09:53:00,52.0,46.0,30.02,SSE,153,3.0,10.0,79,0.08,,,0.08,,2013-06-06 13:53:00,
2013-06-06 10:03:00,52.0,46.0,30.02,South,174,2.0,9.0,80,0.12,,,0.14,,2013-06-06 14:03:00,
2013-06-06 10:13:00,52.0,46.0,30.02,South,174,2.0,9.0,80,0.12,,,0.14,,2013-06-06 14:13:00,
2013-06-06 10:23:00,52.0,46.0,30.03,NE,45,0.0,3.0,80,0.22,,,0.26,,2013-06-06 14:23:00,
2013-06-06 10:33:00,52.0,46.0,30.03,ESE,113,2.0,3.0,81,0.24,,,0.32,,2013-06-06 14:33:00,
2013-06-06 10:43:00,52.0,46.0,30.03,ESE,113,2.0,3.0,81,0.24,,,0.32,,2013-06-06 14:43:00,
2013-06-06 10:53:00,52.0,46.0,30.03,SSE,157,5.0,7.0,81,0.30,,,0.38,,2013-06-06 14:53:00,
2013-06-06 11:03:00,52.0,46.0,30.03,SE,133,3.0,6.0,81,0.28,,,0.46,,2013-06-06 15:03:00,
2013-06-06 11:13:00,52.0,46.0,30.03,SE,133,3.0,6.0,81,0.28,,,0.46,,2013-06-06 15:13:00,
2013-06-06 11:23:00,52.0,46.0,30.02,SE,129,3.0,7.0,81,0.25,,,0.51,,2013-06-06 15:23:00,
2013-06-06 11:33:00,52.0,46.0,30.03,SE,142,2.0,8.0,81,0.21,,,0.55,,2013-06-06 15:33:00,
2013-06-06 11:43:00,52.0,46.0,30.03,SE,142,2.0,8.0,81,0.21,,,0.55,,2013-06-06 15:43:00,
2013-06-06 11:53:00,52.0,47.0,30.02,SW,232,2.0,5.0,82,0.19,,,0.59,,2013-06-06 15:53:00,
2013-06-06 12:03:00,52.0,47.0,30.02,SSE,151,3.0,9.0,82,0.19,,,0.65,,2013-06-06 16:03:00,
2013-06-06 12:13:00,52.0,47.0,30.02,SSE,151,3.0,9.0,82,0.19,,,0.65,,2013-06-06 16:13:00,
2013-06-06 12:23:00,52.0,47.0,30.02,South,170,3.0,7.0,82,0.19,,,0.67,,2013-06-06 16:23:00,
2013-06-06 12:33:00,52.0,47.0,30.01,SSE,158,2.0,5.0,82,0.20,,,0.73,,2013-06-06 16:33:00,
2013-06-06 12:44:00,52.0,47.0,30.01,SSE,158,2.0,5.0,82,0.20,,,0.73,,2013-06-06 16:44:00,
2013-06-06 12:53:00,52.0,47.0,30.01,SE,135,0.0,4.0,82,0.20,,,0.79,,2013-06-06 16:53:00,
2013-06-06 13:03:00,52.0,47.0,30.01,SE,139,2.0,3.0,82,0.20,,,0.83,,2013-06-06 17:03:00,
2013-06-06 13:13:00,53.0,48.0,30.01,SE,135,0.0,0.0,82,0.16,,,0.85,,2013-06-06 17:13:00,
2013-06-06 13:23:00,53.0,48.0,30.01,SE,135,0.0,0.0,82,0.16,,,0.85,,2013-06-06 17:23:00,
2013-06-06 13:33:00,53.0,48.0,30.00,SSE,151,2.0,4.0,82,0.12,,,0.87,,2013-06-06 17:33:00,
2013-06-06 13:43:00,53.0,48.0,30.00,SSE,151,2.0,4.0,82,0.12,,,0.87,,2013-06-06 17:43:00,
2013-06-06 13:53:00,53.0,48.0,30.00,SSE,157,4.0,4.0,82,0.10,,,0.89,,2013-06-06 17:53:00,
2013-06-06 14:03:00,53.0,48.0,29.99,SSE,151,3.0,6.0,82,0.08,,,0.91,,2013-06-06 18:03:00,
2013-06-06 14:13:00,53.0,48.0,29.99,SSE,151,3.0,6.0,82,0.08,,,0.91,,2013-06-06 18:13:00,
2013-06-06 14:23:00,53.0,48.0,29.99,ESE,117,2.0,4.0,82,0.06,,,0.91,,2013-06-06 18:23:00,
2013-06-06 14:33:00,53.0,48.0,29.99,SE,135,3.0,3.0,82,0.06,,,0.93,,2013-06-06 18:33:00,
2013-06-06 14:43:00,53.0,48.0,29.99,SE,135,3.0,3.0,82,0.06,,,0.93,,2013-06-06 18:43:00,
2013-06-06 14:53:00,54.0,48.0,29.99,South,173,3.0,3.0,81,0.04,,,0.93,,2013-06-06 18:53:00,
2013-06-06 15:03:00,54.0,48.0,29.98,SSE,157,0.0,0.0,81,0.06,,,0.97,,2013-06-06 19:03:00,
2013-06-06 15:13:00,55.0,49.0,29.98,South,180,0.0,5.0,81,0.06,,,0.97,,2013-06-06 19:13:00,
2013-06-06 15:23:00,55.0,49.0,29.98,South,180,0.0,5.0,81,0.06,,,0.97,,2013-06-06 19:23:00,
2013-06-06 15:33:00,55.0,49.0,30.00,SSE,157,0.0,1.0,81,0.06,,,0.99,,2013-06-06 19:33:00,
2013-06-06 15:43:00,55.0,49.0,30.00,SSE,157,0.0,1.0,81,0.06,,,0.99,,2013-06-06 19:43:00,
2013-06-06 15:53:00,55.0,49.0,29.98,SSE,157,0.0,0.0,81,0.09,,,1.02,,2013-06-06 19:53:00,
2013-06-06 16:03:00,55.0,49.0,29.99,SE,135,0.0,0.0,81,0.07,,,1.04,,2013-06-06 20:03:00,
2013-06-06 16:13:00,55.0,49.0,29.99,SE,135,0.0,0.0,81,0.07,,,1.04,,2013-06-06 20:13:00,
2013-06-06 16:23:00,55.0,49.0,29.98,SE,135,0.0,0.0,81,0.07,,,1.04,,2013-06-06 20:23:00,
2013-06-06 16:33:00,56.0,51.0,29.99,SSE,162,2.0,5.0,82,0.07,,,1.06,,2013-06-06 20:33:00,
2013-06-06 16:42:00,56.0,51.0,29.99,SSE,162,2.0,5.0,82,0.07,,,1.06,,2013-06-06 20:42:00,
2013-06-06 16:53:00,55.0,50.0,29.98,SSE,158,2.0,7.0,82,0.06,,,1.08,,2013-06-06 20:53:00,
2013-06-06 17:03:00,55.0,50.0,29.98,South,180,2.0,5.0,83,0.04,,,1.08,,2013-06-06 21:03:00,
2013-06-06 17:13:00,55.0,50.0,29.98,South,180,2.0,5.0,83,0.04,,,1.08,,2013-06-06 21:13:00,
2013-06-06 17:23:00,54.0,49.0,29.98,SSE,156,5.0,12.0,83,0.08,,,1.12,,2013-06-06 21:23:00,
2013-06-06 17:33:00,53.0,48.0,29.98,SSE,168,4.0,13.0,82,0.08,,,1.14,,2013-06-06 21:33:00,
2013-06-06 17:43:00,53.0,48.0,29.98,SSE,168,4.0,13.0,82,0.08,,,1.14,,2013-06-06 21:43:00,
2013-06-06 17:53:00,52.0,47.0,29.96,SSE,149,3.0,12.0,82,0.08,,,1.16,,2013-06-06 21:53:00,
2013-06-06 18:03:00,52.0,47.0,29.96,SSE,162,4.0,9.0,82,0.06,,,1.16,,2013-06-06 22:03:00,
2013-06-06 18:13:00,52.0,47.0,29.96,SSE,162,4.0,9.0,82,0.06,,,1.16,,2013-06-06 22:13:00,
2013-06-06 18:23:00,52.0,47.0,29.94,South,173,3.0,11.0,83,0.06,,,1.18,,2013-06-06 22:23:00,
2013-06-06 18:33:00,52.0,47.0,29.94,SSE,154,3.0,9.0,83,0.06,,,1.20,,2013-06-06 22:33:00,
2013-06-06 18:43:00,52.0,47.0,29.94,SSE,154,3.0,9.0,83,0.06,,,1.20,,2013-06-06 22:43:00,
2013-06-06 18:53:00,52.0,47.0,29.94,SSE,163,2.0,13.0,84,0.04,,,1.20,,2013-06-06 22:53:00,
2013-06-06 19:02:00,52.0,47.0,29.95,SE,143,3.0,11.0,84,0.06,,,1.22,,2013-06-06 23:02:00,
2013-06-06 19:13:00,52.0,47.0,29.95,SE,143,3.0,11.0,84,0.06,,,1.22,,2013-06-06 23:13:00,
2013-06-06 19:22:00,52.0,47.0,29.94,SE,145,5.0,11.0,84,0.04,,,1.24,,2013-06-06 23:22:00,
2013-06-06 19:33:00,52.0,47.0,29.93,SE,146,3.0,8.0,84,0.04,,,1.24,,2013-06-06 23:33:00,
2013-06-06 19:43:00,52.0,47.0,29.93,SE,146,3.0,8.0,84,0.04,,,1.24,,2013-06-06 23:43:00,
2013-06-06 19:52:00,52.0,47.0,29.93,South,186,4.0,10.0,84,0.06,,,1.26,,2013-06-06 23:52:00,
2013-06-06 20:02:00,52.0,47.0,29.93,SSE,168,4.0,11.0,84,0.04,,,1.26,,2013-06-07 00:02:00,
2013-06-06 20:12:00,52.0,47.0,29.93,SSE,168,4.0,11.0,84,0.04,,,1.26,,2013-06-07 00:12:00,
2013-06-06 20:22:00,53.0,48.0,29.92,South,180,4.0,6.0,84,0.02,,,1.26,,2013-06-07 00:22:00,
2013-06-06 20:32:00,52.0,47.0,29.92,SSE,154,2.0,6.0,84,0.02,,,1.26,,2013-06-07 00:32:00,
2013-06-06 20:42:00,52.0,47.0,29.92,SSE,154,2.0,6.0,84,0.02,,,1.26,,2013-06-07 00:42:00,
2013-06-06 20:52:00,53.0,49.0,29.92,ESE,118,3.0,10.0,85,0.00,,,1.26,,2013-06-07 00:52:00,
2013-06-06 21:03:00,52.0,48.0,29.91,SE,140,5.0,14.0,85,0.02,,,1.28,,2013-06-07 01:03:00,
2013-06-06 21:12:00,52.0,48.0,29.91,SE,140,5.0,14.0,85,0.02,,,1.28,,2013-06-07 01:12:00,
2013-06-06 21:22:00,53.0,49.0,29.91,South,184,2.0,10.0,85,0.02,,,1.28,,2013-06-07 01:22:00,
2013-06-06 21:32:00,53.0,49.0,29.91,SSE,158,4.0,9.0,85,0.04,,,1.30,,2013-06-07 01:32:00,
2013-06-06 21:42:00,53.0,49.0,29.91,SSE,158,4.0,9.0,85,0.04,,,1.30,,2013-06-07 01:42:00,
2013-06-06 21:52:00,53.0,49.0,29.91,South,169,3.0,7.0,85,0.06,,,1.32,,2013-06-07 01:52:00,
2013-06-06 22:02:00,53.0,49.0,29.90,SE,134,3.0,6.0,85,0.08,,,1.36,,2013-06-07 02:02:00,
2013-06-06 22:12:00,53.0,49.0,29.90,SE,134,3.0,6.0,85,0.08,,,1.36,,2013-06-07 02:12:00,
2013-06-06 22:22:00,53.0,49.0,29.90,South,178,6.0,11.0,86,0.08,,,1.36,,2013-06-07 02:22:00,
2013-06-06 22:32:00,53.0,49.0,29.90,South,178,5.0,11.0,86,0.06,,,1.36,,2013-06-07 02:32:00,
2013-06-06 22:42:00,53.0,49.0,29.90,South,178,5.0,11.0,86,0.06,,,1.36,,2013-06-07 02:42:00,
2013-06-06 22:52:00,54.0,50.0,29.89,SSE,164,4.0,11.0,86,0.04,,,1.36,,2013-06-07 02:52:00,
2013-06-06 23:02:00,54.0,50.0,29.88,South,178,4.0,12.0,86,0.02,,,1.36,,2013-06-07 03:02:00,
2013-06-06 23:12:00,54.0,50.0,29.88,South,178,4.0,12.0,86,0.02,,,1.36,,2013-06-07 03:12:00,
2013-06-06 23:22:00,54.0,50.0,29.88,SSE,158,4.0,9.0,86,0.00,,,1.36,,2013-06-07 03:22:00,
2013-06-06 23:33:00,54.0,50.0,29.88,SSE,163,3.0,10.0,86,0.00,,,1.36,,2013-06-07 03:33:00,
2013-06-06 23:43:00,54.0,50.0,29.88,SSE,163,3.0,10.0,86,0.00,,,1.36,,2013-06-07 03:43:00,
2013-06-06 23:53:00,55.0,51.0,29.87,South,169,4.0,10.0,86,0.00,,,1.36,,2013-06-07 03:53:00,